Погода в Таразе

Поиск расширенной информации на нашем сайте:

Полезная информация:

Новости сайта



02.01.2020
Опубликован Долгосрочный прогноз погоды по городам России и ближнего зарубежья на январь 2020 года.
Карты: Прогноз на январь и февраль 2020 года, Сравнение прогнозируемой аномалии приземной температуры воздуха на январь 2020 года по разным моделям.




Погода в Таразе - сегодня

Время (UTC), дата Ветер
(°,м/с) 
Видим.   Явления Облачность Т
(°С)
Тd
(°С)
f(%) Тe
(°С)
Pmin
(гПа)
dP
(гПа)
Po
(мм)
O2
(г/м3)
Тmin Tmax R s Состояние
почвы
03 30.11.20 050 (СВ) 20000 м    10/6 1000 м средняя 
[Sc diur, vesp|Ac lent]
-5.6 -7.8 84 -7  1043.4  0.2  721  297        мокрый или
старый снег
10-40% 
06 30.11.20 340 (С) 20000 м    10/6 1000 м средняя 
[Sc diur, vesp|Ac lent]
-5.2 -8.1 80 -7  1042.7  -0.5  720  297  -5.6         
09 30.11.20 350 (С) 20000 м    9/8 1000 м средняя 
[Sc diur, vesp|Ac lent]
-5.4 -8.3 80 -5  1040.6  -2  719  296           
12 30.11.20 020 (С) 20000 м    10/10 1000 м 
[Sc diur, vesp]
-6 -8.3 84 -9  1040.4  -0.4  718  297           
15 30.11.20 050 (СВ) 10 км    10/10 1000 м 
[Sc diur, vesp]
-7.3 -8.6 90 -9  1039.5  -1.2  718  298    -4.6       
18 30.11.20 050 (СВ) 10 км    10/6 1000 м средняя 
[Sc diur, vesp|Ac lent]
-8.2 -9.6 90 -8  1038.2  -1.4  716  299    -4.6       
21 30.11.20 020 (С) 10 км    10/6 1000 м средняя 
[Sc diur, vesp|Ac lent]
-8.8 -9.9 92 -9  1036.7  -1.6  715  299           
00 01.12.20 010 (С) 10 км    10/4 1000 м средняя 
[Sc diur, vesp|Ac lent]
-9 -10.1 92 -9  1035.7  -1  715  299           
03 01.12.20 тихо ()   20000 м    10/10 1000 м 
[Sc diur, vesp]
-8.6 -9.2 95 -9  1035.8  0.1  715  298           
06 01.12.20 тихо ()   20000 м    10/10 1000 м 
[Sc diur, vesp]
-6.9 -9.4 82 -7  1034.8  -0.3  714  296  -9.4         
09 01.12.20 040 (СВ) 20000 м    10/8 1000 м верхняя 
[Sc diur, vesp|Ci sp]
-5 -8.2 78 -6  1032.9  -1.2  713  294           
12 01.12.20 050 (СВ) 20000 м    10/6 1000 м средняя, верхняя 
[Sc diur, vesp|Ac lent|Ci sp]
-5.7 -7.5 87 -7  1033.2  0.1  714  294           
15 01.12.20 030 (СВ) 10 км    8/6 1000 м средняя 
[Sc diur, vesp|Ac lent]
-5.8 -8 84 -5  1033.2  714  294    -4.1       
18 01.12.20 тихо ()   10 км    9/8 1000 м средняя 
[Sc diur, vesp|Ac lent]
-5 -7.1 85 -5  1031.7  -1.1  713  293    -4.1       
21 01.12.20 150 (ЮВ) 10 км    8/6 1000 м средняя 
[Sc diur, vesp|Ac lent]
-3.5 -5.6 85 -3  1030.2  -0.1  712  291           
00 02.12.20 170 (Ю) 10 км    10/0 средняя, верхняя 
[As op|Ci sp]
-1.7 -4.1 84 -3  1029.3  -0.3  712  289           
03 02.12.20 170 (Ю) 20000 м    8/3 1000 м средняя, верхняя 
[Sc diur, vesp|Ac lent|Ci fib]
-1.3 -6.8 66 -1  1029.5  0.3  712  289           
06 02.12.20 170 (Ю) 20000 м    8/0 средняя, верхняя 
[Ac lent|Ci sp]
+6.9 -3.1 49 +8  1027.3  0.2  712  280  -5.8         
09 02.12.20 тихо ()   20000 м    10/0 средняя, верхняя 
[Ac lent|Ci fib]
+9.9 -5.7 33 +10  1026.1  -0.3  712  277           
12 02.12.20 140 (ЮВ) 20000 м    6/3 1000 м средняя 
[Sc diur, vesp|Ac lent]
+4 -1.9 65 +5  1027.5  -0.6  711  283           
15 02.12.20 220 (ЮЗ) 10 км    9/6 1000 м средняя 
[Sc diur, vesp|Ac lent]
-0.4 -1.9 90 1028.2  -0.2  711  287    +10.1       
18 02.12.20 230 (ЮЗ) 10 км    3/3 1000 м 
[Sc diur, vesp]
-1.2 -2.5 91 -2  1027.5  -0.9  711  288    +10.1       
21 02.12.20 190 (Ю) 10 км    9/6 1000 м средняя 
[Sc diur, vesp|Ac lent]
+0.1 -2.6 82 +1  1026.5  -0.5  710  286           
00 03.12.20 210 (ЮЗ) 10 км    9/6 1000 м средняя 
[Sc diur, vesp|Ac lent]
-0.5 -2.3 88 -1  1028  1.2  711  287           
03 03.12.20 190 (Ю) 20000 м    10/8 1000 м средняя 
[Sc diur, vesp|Ac lent]
+2.8 -0.5 79 +2  1027.6  0.6  712  284           
Время (UTC), дата Ветер
(°,м/с) 
Видим.   Явления Облачность Т
(°С)
Тd
(°С)
f(%) Тe
(°С)
Pmin
(гПа)
dP
(гПа)
Po
(мм)
O2
(г/м3)
Тmin Tmax R s Состояние
почвы

Для получения пояснительной информации подведите курсор к названию столбца.

ПОГОДА в Таразе - архив

Всё, что Вы хотите узнать о погоде в Таразе - удобно и подробно!

Выберите нужную дату (начиная с 1 января 2019* года) и нажмите кнопку "Найти".
Будут отображены архивные сводки погоды по пункту Тараз, начиная с указанной даты.


Отображать данные в формате CSV (для использования в таблицах Excel)


Внимание! Наш архив погоды предназначен исключительно для личного некоммерческого использования в познавательных целях. Если Вам необходимы официальные справки о состоянии погоды (для производственных, юридических, коммерческих и т.п. целей), обращайтесь в органы Росгидромета.

*Примечание: данная дата относится к архиву по метеостанциям СССР (Россия, СНГ, Балтия).
Архив по метеостанциям Зарубежной Европы и Азии (кроме Китая) хранится 10 дней, по другим регионам земного шара (Китай, Африка, Америка, Австралия, Океания) - 1 день.

Тараз - район местоположения метеостанции


Название, широта, долгота, высота метеостанции:
Тараз (город) 42.9°ш. 71.4°д. 651 м над ур. моря [Казахстан]

Дополнительная информация

В oтличие oт бoльшинства пoгoдных сайтoв мы публикуем пoдрoбную метеoинфoрмацию в детальнoм прoфессиoнальнoм фoрмате.

Характеристики температуры и влажнoсти вoздуха измеряются на высoте 2 м в тени вдали oт зданий и деревьев.
Скoрoсть ветра измеряется на высoте 10 м (на урoвне рoста челoвека скoрoсть ветра ниже в 1.5-2 раза). Если метеoстанция нахoдится в гoрoде или в лесу, тo скoрoсть ветра занижена на 2-4 м/с пo сравнению с oткрытым местoм. Скoрoсть ветра над акватoриями крупных рек и oзёр, а также на вершинах хoлмoв на 2-5 м/с выше, чем в oбычных услoвиях.
Атмoсфернoе давление в разных тoчках местнoсти мoжет значительнo oтличаться oт давления на метеoстанции, в зависимoсти oт услoвий рельефа (при пoдъёме на 10 м давление пoнижается примернo на 1 мм рт.ст.).